Weather History for Colorado City, AZ

Change the Weather History Date:

Friday, April 25, 2014

  Actual Average (KCDC) Record (KCDC)
Temperature  
Mean Temperature 54 °F 49 °F  
Max Temperature 76 °F 64 °F 77 °F (1953)
Min Temperature 33 °F 34 °F 18 °F (2008)
Degree Days  
Heating Degree Days 10 16  
Month to date heating degree days 479  
Since 1 July heating degree days 5813  
Cooling Degree Days 0 0  
Month to date cooling degree days 0  
Year to date cooling degree days 0  
Growing Degree Days 4 (Base 50)    
Moisture  
Dew Point 19 °F    
Average Humidity 24    
Maximum Humidity 44    
Minimum Humidity 11    
Precipitation  
Precipitation 0.00 in 0.03 in 0.28 in (1985)
Month to date precipitation 0.91  
Year to date precipitation 4.12  
Sea Level Pressure  
Sea Level Pressure 29.83 in    
Wind  
Wind Speed 9 mph (South)    
Max Wind Speed 31 mph    
Max Gust Speed 40 mph    
Visibility 10 miles    
Events      
T = Trace of Precipitation, MM = Missing Value Source: NWS Daily Summary

Daily Weather History Graph

Daily Weather History Graph

Search for Another Location

Airport:

Trip Planner

Search our weather history database for the weather conditions in past years. The results will help you decide how hot, cold, wet, or windy it might be!

Date:

Astronomy

Apr. 25, 2014 Rise Set
Actual Time 5:44 AM MST 7:15 PM MST
Civil Twilight 5:17 AM MST 7:43 PM MST
Nautical Twilight 4:44 AM MST 8:16 PM MST
Astronomical Twilight 4:09 AM MST 8:51 PM MST
Moon 3:29 AM MST (4/25) 3:47 PM MST (4/25)
Length of Visible Light 14h 25m
Length of Day
13h 30m
Waning Crescent, 14% of the Moon is Illuminated
Apr 25
Waning Crescent
Apr 28
New
May 6
First Quarter
May 14
Full
May 21
Last Quarter

Hourly Weather History & Observations

Time (MST) Temp. Windchill Dew Point Humidity Pressure Visibility Wind Dir Wind Speed Gust Speed Precip Events Conditions
12:15 AM 38.3 °F - 12.6 °F 35% 29.98 in 10.0 mi Calm Calm - N/A   Clear
12:40 AM 37.6 °F 34.0 °F 12.0 °F 35% 29.99 in 10.0 mi SSE 4.6 mph - N/A   Clear
12:55 AM 35.8 °F - 12.9 °F 39% 29.98 in 10.0 mi Calm Calm - N/A   Clear
1:15 AM 35.1 °F 30.1 °F 13.3 °F 41% 29.98 in 10.0 mi SE 5.8 mph - N/A   Clear
1:35 AM 34.9 °F 29.9 °F 12.7 °F 40% 29.97 in 10.0 mi SE 5.8 mph - N/A   Clear
1:55 AM 35.1 °F 30.1 °F 13.1 °F 40% 29.96 in 10.0 mi SE 5.8 mph - N/A   Clear
2:15 AM 36.3 °F - 13.8 °F 40% 29.95 in 10.0 mi Calm Calm - N/A   Clear
2:35 AM 36.3 °F 31.6 °F 12.6 °F 38% 29.94 in 10.0 mi South 5.8 mph - N/A   Clear
2:55 AM 36.9 °F - 11.3 °F 35% 29.94 in 10.0 mi Calm Calm - N/A   Clear
3:15 AM 36.3 °F 30.8 °F 11.1 °F 35% 29.94 in 10.0 mi SSE 6.9 mph - N/A   Clear
3:35 AM 33.6 °F 29.4 °F 12.0 °F 41% 29.94 in 10.0 mi SE 4.6 mph - N/A   Clear
3:55 AM 35.2 °F 30.3 °F 12.7 °F 40% 29.94 in 10.0 mi SSE 5.8 mph - N/A   Clear
4:15 AM 35.2 °F 30.3 °F 12.0 °F 38% 29.93 in 10.0 mi SE 5.8 mph - N/A   Clear
4:35 AM 34.5 °F 29.4 °F 13.1 °F 41% 29.93 in 10.0 mi SSE 5.8 mph - N/A   Clear
4:55 AM 35.2 °F 32.4 °F 12.0 °F 38% 29.93 in 10.0 mi SE 3.5 mph - N/A   Clear
5:15 AM 35.2 °F 30.3 °F 13.5 °F 41% 29.93 in 10.0 mi SE 5.8 mph - N/A   Clear
5:35 AM 35.8 °F 30.1 °F 14.7 °F 42% 29.92 in 10.0 mi SE 6.9 mph - N/A   Clear
5:55 AM 35.8 °F 29.4 °F 15.4 °F 44% 29.92 in 10.0 mi SE 8.1 mph - N/A   Clear
6:15 AM 35.6 °F 30.7 °F 14.0 °F 41% 29.92 in 10.0 mi SSE 5.8 mph - N/A   Clear
6:35 AM 38.5 °F 34.1 °F 14.2 °F 37% 29.92 in 10.0 mi SE 5.8 mph - N/A   Clear
7:15 AM 55.9 °F - 11.7 °F 17% 29.92 in 10.0 mi SE 9.2 mph 16.1 mph N/A   Clear
7:35 AM 58.3 °F - 11.3 °F 16% 29.92 in 10.0 mi SE 6.9 mph - N/A   Clear
7:55 AM 60.8 °F - 11.8 °F 15% 29.92 in 10.0 mi SSE 11.5 mph - N/A   Clear
8:15 AM 62.8 °F - 12.2 °F 14% 29.91 in 10.0 mi SE 10.4 mph - N/A   Clear
8:35 AM 63.9 °F - 12.4 °F 13% 29.91 in 10.0 mi SE 11.5 mph 17.3 mph N/A   Clear
8:55 AM 64.8 °F - 13.1 °F 13% 29.90 in 10.0 mi SE 13.8 mph 19.6 mph N/A   Clear
9:15 AM 66.0 °F - 14.7 °F 14% 29.89 in 10.0 mi SE 12.7 mph 19.6 mph N/A   Clear
9:35 AM 66.9 °F - 15.8 °F 14% 29.89 in 10.0 mi SE 11.5 mph - N/A   Clear
9:55 AM 69.1 °F - 18.3 °F 14% 29.89 in 10.0 mi SSW 17.3 mph 20.7 mph N/A   Clear
10:15 AM 69.1 °F - 21.7 °F 17% 29.89 in 10.0 mi SSW 18.4 mph 25.3 mph N/A   Clear
10:35 AM 69.1 °F - 22.5 °F 17% 29.89 in 10.0 mi SW 20.7 mph 25.3 mph N/A   Clear
10:55 AM 68.4 °F - 23.9 °F 19% 29.87 in 10.0 mi SW 17.3 mph 24.2 mph N/A   Clear
11:15 AM 68.7 °F - 25.0 °F 19% 29.87 in 10.0 mi SSW 16.1 mph 27.6 mph N/A   Clear
11:35 AM 70.3 °F - 25.3 °F 19% 29.85 in 10.0 mi SSW 23.0 mph 28.8 mph N/A   Scattered Clouds
11:55 AM 72.5 °F - 25.2 °F 17% 29.84 in 10.0 mi SSW 21.9 mph 27.6 mph N/A   Clear
12:15 PM 73.0 °F - 24.8 °F 17% 29.83 in 10.0 mi SW 18.4 mph 25.3 mph N/A   Clear
12:35 PM 72.1 °F - 23.4 °F 16% 29.82 in 10.0 mi SSW 13.8 mph 23.0 mph N/A   Scattered Clouds
12:55 PM 72.9 °F - 22.3 °F 15% 29.82 in 10.0 mi SW 24.2 mph 27.6 mph N/A   Scattered Clouds
1:15 PM 75.0 °F - 22.3 °F 14% 29.80 in 10.0 mi SSW 16.1 mph 26.5 mph N/A   Clear
1:35 PM 75.9 °F - 22.3 °F 14% 29.79 in 10.0 mi South 23.0 mph 28.8 mph N/A   Scattered Clouds
1:55 PM 74.1 °F - 21.2 °F 14% 29.78 in 10.0 mi SSW 13.8 mph 25.3 mph N/A   Mostly Cloudy
2:15 PM 73.9 °F - 21.0 °F 14% 29.76 in 10.0 mi SSW 25.3 mph 39.1 mph N/A   Overcast
2:35 PM 73.6 °F - 20.8 °F 14% 29.76 in 10.0 mi SW 15.0 mph 31.1 mph N/A   Mostly Cloudy
2:55 PM 75.6 °F - 20.3 °F 13% 29.75 in 10.0 mi SW 31.1 mph 38.0 mph N/A   Mostly Cloudy
3:15 PM 76.3 °F - 18.7 °F 11% 29.75 in 10.0 mi SSW 28.8 mph 40.3 mph N/A   Scattered Clouds
3:35 PM 74.3 °F - 18.0 °F 12% 29.75 in 10.0 mi SW 29.9 mph 38.0 mph N/A   Scattered Clouds
3:55 PM 72.3 °F - 19.6 °F 14% 29.75 in 10.0 mi WSW 15.0 mph 32.2 mph N/A   Scattered Clouds
4:15 PM 71.8 °F - 22.1 °F 15% 29.75 in 10.0 mi WSW 23.0 mph 32.2 mph N/A   Scattered Clouds
4:35 PM 72.5 °F - 21.7 °F 15% 29.75 in 10.0 mi SW 25.3 mph 33.4 mph N/A   Clear
4:55 PM 72.1 °F - 21.4 °F 15% 29.75 in 10.0 mi WSW 24.2 mph 32.2 mph N/A   Scattered Clouds
5:15 PM 71.1 °F - 21.6 °F 15% 29.74 in 10.0 mi WSW 19.6 mph 29.9 mph N/A   Clear
5:35 PM 69.8 °F - 21.9 °F 16% 29.74 in 10.0 mi SW 24.2 mph - N/A   Clear
5:55 PM 69.3 °F - 23.4 °F 18% 29.73 in 10.0 mi SW 21.9 mph 28.8 mph N/A   Clear
6:15 PM 68.4 °F - 23.7 °F 19% 29.73 in 10.0 mi SW 19.6 mph 26.5 mph N/A   Clear
6:35 PM 67.3 °F - 24.4 °F 20% 29.74 in 10.0 mi SW 17.3 mph 26.5 mph N/A   Clear
6:55 PM 66.2 °F - 24.6 °F 21% 29.74 in 10.0 mi WSW 15.0 mph 25.3 mph N/A   Clear
7:15 PM 65.5 °F - 24.6 °F 21% 29.74 in 10.0 mi WSW 8.1 mph 18.4 mph N/A   Clear
7:35 PM 64.8 °F - 23.5 °F 21% 29.74 in 10.0 mi SW 12.7 mph 19.6 mph N/A   Scattered Clouds
7:55 PM 64.2 °F - 23.2 °F 21% 29.73 in 10.0 mi SSW 9.2 mph - N/A   Scattered Clouds
8:15 PM 63.3 °F - 23.5 °F 22% 29.72 in 10.0 mi SSW 8.1 mph - N/A   Clear
8:35 PM 63.1 °F - 24.1 °F 23% 29.72 in 10.0 mi SSW 6.9 mph 11.5 mph N/A   Clear
8:55 PM 61.2 °F - 23.9 °F 24% 29.72 in 10.0 mi SSW 3.5 mph - N/A   Scattered Clouds
9:15 PM 60.3 °F - 23.4 °F 24% 29.71 in 10.0 mi South 3.5 mph - N/A   Mostly Cloudy
9:35 PM 60.6 °F - 22.6 °F 23% 29.70 in 10.0 mi South 5.8 mph - N/A   Mostly Cloudy
9:55 PM 60.6 °F - 22.1 °F 23% 29.70 in 10.0 mi SSW 8.1 mph 17.3 mph N/A   Mostly Cloudy
10:15 PM 61.2 °F - 21.7 °F 22% 29.69 in 10.0 mi SE 5.8 mph - N/A   Scattered Clouds
10:35 PM 58.1 °F - 22.5 °F 25% 29.67 in 10.0 mi ESE 5.8 mph - N/A   Mostly Cloudy
10:55 PM 57.4 °F - 22.6 °F 26% 29.66 in 10.0 mi SE 4.6 mph - N/A   Overcast
11:15 PM 56.5 °F - 22.6 °F 27% 29.66 in 10.0 mi SSE 5.8 mph - N/A   Overcast
11:35 PM 59.4 °F - 23.2 °F 25% 29.64 in 10.0 mi SSE 12.7 mph 17.3 mph N/A   Overcast
11:55 PM 60.4 °F - 24.4 °F 25% 29.64 in 10.0 mi SSW 10.4 mph - N/A   Overcast